[[{"header":{"parameterUnit":"m.s-1","parameterCategory":1,"la1":30.2992,"la2":30.254,"lo1":-89.0895,"lo2":-89.0443,"dy":0.0025,"dx":0.0025,"nx":19,"ny":19,"refTime":"2026-04-23T09:00:00:Z","depth":0,"parameterNumber":2,"parameterNumberName":"U-component_of_WINDS"},"data":[0,0,0,-3.8827,-3.883,-3.896,-3.896,-3.9128,-3.913,0,0,0,0,0,0,0,0,0,0,0,-3.8789,-3.879,-3.8827,-3.883,-3.896,-3.8961,-3.9128,-3.913,0,0,0,0,0,0,0,0,0,0,0,-3.8788,-3.879,-3.8791,-3.883,-3.896,-3.8961,-3.9127,-3.9029,0,0,0,0,0,0,0,0,0,0,-3.8902,-3.8868,-3.879,-3.8791,-3.8831,-3.896,-3.8961,-3.9024,-3.9035,-3.907,0,-3.91,0,-3.9118,-3.9141,-3.9141,0,0,0,-3.883,-3.8859,-3.8893,-3.8792,-3.8832,-3.896,-3.8901,-3.903,-3.9043,-3.9084,-3.9103,-3.9109,-3.9121,-3.9142,-3.9143,-3.9343,-3.9344,0,0,-3.8822,-3.8813,-3.8885,-3.8901,-3.8881,-3.8897,-3.8905,-3.9038,-3.9058,-3.9103,-3.9113,-3.9123,-3.9143,-3.9144,-3.9342,-3.9343,0,0,0,-3.8802,-3.8808,-3.8839,-3.8895,-3.8918,-3.8901,-3.891,-3.9052,-3.9063,-3.9115,-3.9125,-3.9144,-3.9146,-3.9341,-3.9343,-3.9379,0,0,0,-3.8798,-3.8796,-3.8836,-3.8831,-3.8915,-3.8986,-3.8921,-3.9053,-3.9069,-3.9124,-3.9144,-3.9148,-3.934,-3.9342,-3.9376,-3.9397,0,0,0,-3.878,-3.8794,-3.8813,-3.8831,-3.8886,-3.8984,-3.9003,-3.9057,-3.9075,-3.9142,-3.9148,-3.9339,-3.9342,-3.9373,-3.9393,-3.9446,0,0,0,-3.8759,-3.8845,-3.8813,-3.8913,-3.8885,-3.9007,-3.9002,-3.9094,-3.9155,-3.9145,-3.934,-3.9343,-3.9372,-3.939,-3.9443,-3.9487,-3.9505,0,0,-3.8861,-3.8857,-3.8916,-3.8892,-3.9016,-3.8988,-3.9118,-3.9183,-3.9199,-3.9294,-3.9299,-3.9377,-3.9392,-3.9445,-3.9615,-3.9629,0,0,0,-3.8945,-3.8987,-3.9022,-3.908,-3.9133,-3.9179,-3.9226,-3.925,-3.9331,-3.9246,-3.9412,-3.9422,-3.9453,-3.9474,-3.9487,-3.9513,-3.9353,-3.9353,-3.9352,-3.9075,-3.909,-3.9189,-3.9219,-3.9276,-3.9323,-3.937,-3.9411,-3.941,-3.9449,-3.9477,-3.9578,-3.9603,-3.9612,-3.964,-3.9504,-3.9504,-3.9504,-3.9504,-3.9224,-3.9286,-3.9283,-3.9377,-3.9392,-3.9472,-3.9522,-3.9518,-3.9594,-3.9559,-3.9587,-3.9544,-3.9627,-3.9652,-3.9507,-3.9506,-3.9506,-3.9506,-3.9506,-3.9309,-3.9341,-3.9369,-3.9454,-3.9518,-3.9547,-3.962,-3.9632,-3.9644,-3.9672,-3.9702,-3.9701,-3.97,-3.9686,-3.9686,-3.9687,-3.9687,-3.9687,-3.9688,-3.9385,-3.9416,-3.9475,-3.9538,-3.9576,-3.9628,-3.9678,-3.9716,-3.9761,-3.9764,-3.9765,-3.9759,-3.9634,-3.96,-3.9693,-3.9692,-3.9691,-3.9691,-3.969,-3.9527,-3.9497,-3.9589,-3.9627,-3.9701,-3.9763,-3.9778,-3.9855,-3.9889,-3.9924,-3.9914,-3.982,-3.9815,-3.9805,-3.9778,-3.9911,-3.9911,-3.9911,-3.9911,-3.9597,-3.9596,-3.9692,-3.9753,-3.9813,-3.9836,-3.9939,-3.9979,-4.0015,-4.0036,-4.0019,-3.9985,-3.9975,-3.9976,-3.9963,-3.9937,-4.0108,-4.0108,-4.0108,-3.9684,-3.969,-3.9775,-3.9809,-3.9868,-3.9918,-4.0015,-4.0084,-4.0119,-4.0117,-4.0053,-4.0045,-3.9989,-3.9971,-3.9964,-3.9943,-3.9896,0,0]},{"header":{"parameterUnit":"m.s-1","parameterCategory":1,"la1":30.2992,"la2":30.254,"lo1":-89.0895,"lo2":-89.0443,"dy":0.0025,"dx":0.0025,"nx":19,"ny":19,"refTime":"2026-04-23T09:00:00:Z","depth":0,"parameterNumber":3,"parameterNumberName":"V-component_of_WINDS"},"data":[0,0,0,3.686,3.6861,3.6893,3.6893,3.6947,3.6947,0,0,0,0,0,0,0,0,0,0,0,3.6859,3.6859,3.686,3.6861,3.6893,3.6893,3.6947,3.6947,0,0,0,0,0,0,0,0,0,0,0,3.6858,3.6859,3.686,3.6861,3.6893,3.6893,3.6947,3.6918,0,0,0,0,0,0,0,0,0,0,3.6884,3.6891,3.6859,3.686,3.6861,3.6893,3.6893,3.6916,3.692,3.6938,0,3.6957,0,3.6953,3.6952,3.6952,0,0,0,3.6855,3.6888,3.689,3.686,3.6862,3.6893,3.6877,3.6918,3.6922,3.6943,3.6957,3.6959,3.6954,3.6952,3.6953,3.7081,3.7081,0,0,3.6853,3.6868,3.6887,3.6893,3.6889,3.6876,3.6878,3.692,3.6937,3.6958,3.696,3.6955,3.6953,3.6953,3.708,3.7081,0,0,0,3.6852,3.6868,3.6868,3.6891,3.6896,3.6877,3.6879,3.6935,3.6934,3.6961,3.6956,3.6953,3.6954,3.7079,3.708,3.7138,0,0,0,3.6851,3.6867,3.6867,3.6877,3.6895,3.6916,3.6894,3.6931,3.6935,3.6955,3.6953,3.6955,3.7078,3.7079,3.7135,3.7163,0,0,0,3.6854,3.6867,3.6875,3.6878,3.6892,3.6915,3.6916,3.6932,3.6933,3.6952,3.6955,3.7077,3.7079,3.7131,3.7157,3.72,0,0,0,3.6861,3.6926,3.6876,3.6947,3.6892,3.6952,3.6915,3.6959,3.6983,3.6954,3.7078,3.708,3.713,3.7154,3.7196,3.7237,3.7257,0,0,3.6951,3.6937,3.6978,3.6934,3.7006,3.6945,3.7026,3.7033,3.702,3.7061,3.7064,3.7136,3.7157,3.7199,3.7361,3.7377,0,0,0,3.7012,3.7041,3.7056,3.708,3.7088,3.7097,3.709,3.7093,3.7127,3.7045,3.7163,3.7175,3.72,3.7218,3.7231,3.7251,3.709,3.709,3.709,3.716,3.7141,3.7207,3.7193,3.7217,3.721,3.7227,3.7229,3.7203,3.7232,3.7243,3.7344,3.7367,3.7376,3.7397,3.7265,3.7265,3.7265,3.7266,3.7289,3.7326,3.7292,3.7343,3.7323,3.7366,3.7362,3.7343,3.7379,3.7334,3.7354,3.7305,3.7393,3.741,3.727,3.7269,3.7269,3.7268,3.7268,3.7382,3.7397,3.74,3.7433,3.7461,3.7445,3.7482,3.7463,3.7445,3.7465,3.7475,3.7473,3.7469,3.7472,3.7472,3.7472,3.7473,3.7473,3.7473,3.7476,3.7478,3.7512,3.7527,3.754,3.7555,3.755,3.7563,3.7571,3.7554,3.7554,3.7525,3.7406,3.7376,3.7478,3.7477,3.7477,3.7476,3.7476,3.761,3.7578,3.7629,3.7643,3.7659,3.7687,3.7664,3.7691,3.7698,3.7717,3.7684,3.76,3.7584,3.7574,3.7548,3.7689,3.7689,3.7689,3.7689,3.7688,3.7679,3.7727,3.775,3.777,3.7755,3.7813,3.7811,3.7802,3.7806,3.7783,3.7749,3.7739,3.7728,3.7715,3.769,3.7864,3.7864,3.7865,3.7769,3.7761,3.7814,3.7807,3.7819,3.7829,3.7883,3.791,3.7894,3.7871,3.7808,3.7801,3.7744,3.7728,3.77,3.7679,3.7634,0,0]}]]